Weather History for KGYI - August, 2013

Change the Weather History Date:

Friday, August 30, 2013

  Actual Average (KDFW) Record (KDFW)
Temperature  
Mean Temperature 90 °F 84 °F  
Max Temperature 104 °F 94 °F 106 °F (2000)
Min Temperature 78 °F 73 °F 59 °F (1915)
Degree Days  
Heating Degree Days 0 0  
Month to date heating degree days 0  
Since 1 June heating degree days 0  
Since 1 July heating degree days 0  
Cooling Degree Days 26 19  
Month to date cooling degree days 615  
Year to date cooling degree days 2159  
Since 1 June cooling degree days 1737  
Growing Degree Days 40 (Base 50)    
Moisture  
Dew Point 61 °F    
Average Humidity 36    
Maximum Humidity 61    
Minimum Humidity 22    
Precipitation  
Precipitation 0.00 in 0.08 in 1.35 in (1991)
Month to date precipitation 1.82  
Year to date precipitation 24.02  
Sea Level Pressure  
Sea Level Pressure 29.96 in    
Wind  
Wind Speed 8 mph (SSE)    
Max Wind Speed 15 mph    
Max Gust Speed 21 mph    
Visibility 10 miles    
Events      
T = Trace of Precipitation, MM = Missing Value Source: NWS Daily Summary

Daily Weather History Graph

Daily Weather History Graph

Search for Another Location

Airport or City:

Trip Planner

Search our weather history database for the weather conditions in past years. The results will help you decide how hot, cold, wet, or windy it might be!

Date:

Astronomy

Aug. 30, 2013 Rise Set
Actual Time 6:59 AM CDT 7:54 PM CDT
Civil Twilight 6:33 AM CDT 8:19 PM CDT
Nautical Twilight 6:03 AM CDT 8:50 PM CDT
Astronomical Twilight 5:32 AM CDT 9:21 PM CDT
Moon 1:47 AM CDT (8/30) 4:02 PM CDT (8/30)
Length of Visible Light 13h 46m
Length of Day
12h 55m
Waning Crescent, 29% of the Moon is Illuminated
Aug 30
Waning Crescent
Sep 5
New
Sep 12
First Quarter
Sep 19
Full
Sep 26
Last Quarter

Hourly Weather History & Observations

Time (CDT) Temp. Heat Index Dew Point Humidity Pressure Visibility Wind Dir Wind Speed Gust Speed Precip Events Conditions
12:15 AM 88.7 °F 88.0 °F 59.5 °F 37% 29.99 in 10.0 mi SSE 8.1 mph - N/A   Clear
12:35 AM 88.7 °F 88.0 °F 59.4 °F 37% 29.99 in 10.0 mi SE 8.1 mph - N/A   Clear
12:55 AM 88.2 °F 87.6 °F 59.4 °F 38% 29.99 in 10.0 mi SSE 8.1 mph - N/A   Clear
1:15 AM 88.2 °F 87.3 °F 59.0 °F 37% 29.99 in 10.0 mi SSE 9.2 mph - N/A   Clear
1:35 AM 84.2 °F 85.0 °F 62.4 °F 48% 29.99 in 10.0 mi ESE 6.9 mph - N/A   Clear
1:55 AM 82.4 °F 83.0 °F 61.7 °F 49% 29.99 in 10.0 mi ESE 6.9 mph - N/A   Clear
2:15 AM 84.6 °F 84.8 °F 60.8 °F 45% 29.99 in 10.0 mi SE 9.2 mph - N/A   Clear
2:35 AM 85.1 °F 85.2 °F 60.8 °F 44% 29.99 in 10.0 mi SE 12.7 mph - N/A   Clear
2:55 AM 84.7 °F 85.0 °F 61.3 °F 45% 29.98 in 10.0 mi SSE 13.8 mph - N/A   Clear
3:15 AM 83.8 °F 84.3 °F 61.9 °F 47% 29.99 in 10.0 mi SSE 15.0 mph - N/A   Clear
3:35 AM 84.2 °F 84.8 °F 61.7 °F 47% 29.99 in 10.0 mi SSE 15.0 mph 20.7 mph N/A   Clear
3:55 AM 83.8 °F 84.3 °F 61.7 °F 47% 29.98 in 10.0 mi Calm Calm - N/A   Clear
4:15 AM 83.1 °F 83.9 °F 61.9 °F 49% 29.99 in 10.0 mi South 11.5 mph - N/A   Clear
4:35 AM 82.4 °F 83.2 °F 61.9 °F 50% 29.99 in 10.0 mi SSE 10.4 mph - N/A   Clear
4:55 AM 81.9 °F 82.8 °F 61.9 °F 51% 29.99 in 10.0 mi SSE 10.4 mph - N/A   Clear
5:15 AM 81.3 °F 82.3 °F 62.2 °F 52% 29.99 in 10.0 mi SSE 9.2 mph - N/A   Clear
5:35 AM 81.0 °F 82.1 °F 62.2 °F 53% 29.99 in 10.0 mi SSE 10.4 mph - N/A   Clear
5:55 AM 81.0 °F 82.1 °F 62.6 °F 53% 30.00 in 10.0 mi SSE 10.4 mph - N/A   Clear
6:15 AM 81.0 °F 82.2 °F 62.8 °F 54% 30.00 in 10.0 mi SSE 11.5 mph - N/A   Clear
6:35 AM 80.6 °F 81.9 °F 63.0 °F 55% 30.00 in 10.0 mi South 9.2 mph - N/A   Clear
6:55 AM 79.2 °F - 63.5 °F 59% 30.01 in 10.0 mi South 5.8 mph - N/A   Clear
7:15 AM 78.1 °F - 63.7 °F 61% 30.02 in 10.0 mi SSW 4.6 mph - N/A   Clear
7:35 AM 79.5 °F - 64.4 °F 60% 30.02 in 10.0 mi South 6.9 mph - N/A   Clear
7:55 AM 81.3 °F 83.0 °F 64.6 °F 57% 30.02 in 10.0 mi South 5.8 mph - N/A   Clear
9:15 AM 89.1 °F 90.3 °F 63.9 °F 43% 30.03 in 10.0 mi South 9.2 mph - N/A   Clear
9:35 AM 91.2 °F 92.2 °F 62.8 °F 39% 30.03 in 10.0 mi South 12.7 mph - N/A   Clear
9:55 AM 92.5 °F 93.3 °F 63.0 °F 37% 30.03 in 10.0 mi South 9.2 mph - N/A   Clear
10:15 AM 93.6 °F 94.6 °F 62.6 °F 36% 30.03 in 10.0 mi SSW 11.5 mph - N/A   Clear
10:35 AM 94.6 °F 95.5 °F 62.6 °F 34% 30.03 in 10.0 mi SSW 10.4 mph - N/A   Clear
10:55 AM 95.9 °F 97.0 °F 62.4 °F 33% 30.03 in 10.0 mi SW 9.2 mph - N/A   Clear
11:15 AM 97.0 °F 97.8 °F 62.1 °F 31% 30.02 in 10.0 mi SSW 10.4 mph - N/A   Clear
11:35 AM 98.4 °F 99.7 °F 61.7 °F 30% 30.02 in 10.0 mi SSW 9.2 mph - N/A   Clear
11:55 AM 98.1 °F 98.6 °F 61.2 °F 29% 30.01 in 10.0 mi SSE 3.5 mph 16.1 mph N/A   Clear
12:15 PM 99.3 °F 100.1 °F 60.4 °F 28% 30.01 in 10.0 mi South 8.1 mph - N/A   Clear
12:35 PM 99.3 °F 99.6 °F 59.9 °F 27% 30.00 in 10.0 mi South 4.6 mph 17.3 mph N/A   Clear
12:55 PM 100.9 °F 101.6 °F 59.9 °F 26% 29.99 in 10.0 mi SSW 4.6 mph - N/A   Clear
1:15 PM 101.3 °F 101.6 °F 59.9 °F 25% 29.99 in 10.0 mi South 10.4 mph - N/A   Clear
1:35 PM 101.1 °F 101.3 °F 59.7 °F 25% 29.98 in 10.0 mi WSW 6.9 mph - N/A   Clear
1:55 PM 99.3 °F 99.1 °F 59.0 °F 26% 29.97 in 10.0 mi Calm Calm - N/A   Clear
2:15 PM 99.0 °F 99.0 °F 59.7 °F 27% 29.97 in 10.0 mi West 5.8 mph - N/A   Scattered Clouds
2:35 PM 101.7 °F 102.2 °F 59.5 °F 25% 29.96 in 10.0 mi Calm Calm - N/A   Scattered Clouds
2:55 PM 100.0 °F 100.2 °F 59.0 °F 26% 29.95 in 10.0 mi SE 10.4 mph - N/A   Scattered Clouds
3:15 PM 99.1 °F 98.8 °F 58.6 °F 26% 29.94 in 10.0 mi ESE 3.5 mph - N/A   Clear
3:35 PM 100.2 °F 100.0 °F 58.1 °F 25% 29.93 in 10.0 mi West 3.5 mph - N/A   Clear
3:55 PM 101.1 °F 100.8 °F 58.1 °F 24% 29.92 in 10.0 mi Calm Calm - N/A   Scattered Clouds
4:15 PM 102.2 °F 101.9 °F 58.1 °F 23% 29.91 in 10.0 mi East 4.6 mph - N/A   Mostly Cloudy
4:35 PM 103.8 °F 103.8 °F 58.1 °F 22% 29.90 in 10.0 mi ESE 4.6 mph - N/A   Scattered Clouds
4:55 PM 102.9 °F 103.0 °F 58.3 °F 23% 29.90 in 10.0 mi East 4.6 mph - N/A   Scattered Clouds
5:15 PM 102.9 °F 103.0 °F 58.3 °F 23% 29.90 in 10.0 mi East 4.6 mph - N/A   Scattered Clouds
5:35 PM 102.6 °F 102.4 °F 58.5 °F 23% 29.89 in 10.0 mi East 4.6 mph - N/A   Clear
5:55 PM 101.8 °F 101.4 °F 58.1 °F 23% 29.89 in 10.0 mi NE 3.5 mph - N/A   Scattered Clouds
6:15 PM 101.8 °F 101.4 °F 57.6 °F 23% 29.89 in 10.0 mi Calm Calm - N/A   Scattered Clouds
6:35 PM 101.3 °F 101.1 °F 58.3 °F 24% 29.89 in 10.0 mi ESE 3.5 mph - N/A   Scattered Clouds
6:55 PM 100.6 °F 100.0 °F 58.1 °F 24% 29.89 in 10.0 mi ESE 3.5 mph - N/A   Mostly Cloudy
7:15 PM 99.7 °F 99.2 °F 58.5 °F 25% 29.89 in 10.0 mi ESE 4.6 mph - N/A   Scattered Clouds
7:35 PM 98.4 °F 98.2 °F 58.6 °F 27% 29.89 in 10.0 mi SE 4.6 mph - N/A   Clear
7:55 PM 96.4 °F 96.1 °F 59.0 °F 29% 29.89 in 10.0 mi SSE 5.8 mph - N/A   Clear
8:15 PM 94.8 °F 94.5 °F 59.4 °F 31% 29.89 in 10.0 mi SE 4.6 mph - N/A   Clear
8:35 PM 94.5 °F 93.6 °F 59.0 °F 30% 29.89 in 10.0 mi SE 8.1 mph - N/A   Clear
8:55 PM 94.1 °F 93.5 °F 59.5 °F 31% 29.90 in 10.0 mi SE 6.9 mph - N/A   Clear
9:15 PM 92.7 °F 92.1 °F 59.9 °F 33% 29.90 in 10.0 mi SE 6.9 mph - N/A   Clear
9:35 PM 92.8 °F 92.4 °F 59.9 °F 33% 29.90 in 10.0 mi SE 6.9 mph - N/A   Clear
9:55 PM 91.9 °F 91.5 °F 59.9 °F 34% 29.90 in 10.0 mi SE 6.9 mph - N/A   Clear
10:15 PM 91.4 °F 91.0 °F 59.9 °F 35% 29.90 in 10.0 mi SSE 8.1 mph - N/A   Clear
10:35 PM 90.1 °F 89.9 °F 60.8 °F 37% 29.90 in 10.0 mi SSE 8.1 mph - N/A   Clear
10:55 PM 90.1 °F 89.9 °F 60.4 °F 37% 29.89 in 10.0 mi SSE 8.1 mph - N/A   Clear
11:15 PM 89.2 °F 89.0 °F 60.8 °F 38% 29.89 in 10.0 mi SSE 9.2 mph - N/A   Clear
11:35 PM 89.1 °F 89.0 °F 60.8 °F 39% 29.89 in 10.0 mi SSE 9.2 mph - N/A   Clear
11:55 PM 88.0 °F 87.9 °F 61.2 °F 40% 29.89 in 10.0 mi SSE 8.1 mph - N/A   Clear